Regional Weather Roundup
Issued by NWS

Home | Current Version | Previous Version | Graphics & Text | Print | Product List | Glossary On
Versions: 1 2 3 4 5 6 7 8 9 10 11 12 13 14 15 16 17 18 19 20 21 22 23 24 25 26 27 28 29 30 31 32 33 34 35 36 37 38 39 40 41 42 43 44 45 46 47 48 49 50
660
ASUS44 KMEG 290810
RWRTN
TENNESSEE HOURLY STATE WEATHER ROUNDUP
NATIONAL WEATHER SERVICE MEMPHIS TN
300 AM CDT MON MAY 29 2017

TNZ002-004-019-021-049-052-054-088>092-290900-
WEST TENNESSEE

CITY           SKY/WX    TMP DP  RH WIND       PRES   REMARKS
MEMPHIS INTL   LGT RAIN  72  71  97 SW8       29.95F
NWS MEMPHIS      N/A     67 N/A N/A MISG        N/A
JACKSON        CLOUDY    68  67  96 W3        29.96S
DYERSBURG        N/A    N/A N/A N/A MISG        N/A
SOMERVILLE     CLOUDY    70  70 100 SW7       29.96S
COVINGTON      CLEAR     68  66  94 CALM      29.96R
UNION CITY     CLEAR     64  64 100 S5        29.95S
BOLIVAR        MOCLDY    68  68 100 CALM      29.96S
PARIS          CLEAR     66  64  94 SW5       29.95S
HUNTINGDON     CLEAR     64  64 100 CALM      29.95S FOG
LEXINGTON      CLEAR     64  64 100 MISG      29.96F FOG
SELMER         CLOUDY    68  66  94 W3        29.96F
SAVANNAH       CLOUDY    68  66  94 CALM      29.96F
$$

TNZ008-025-027-028-033-062-065-066-290900-
NORTH MIDDLE TENNESSEE

CITY           SKY/WX    TMP DP  RH WIND       PRES   REMARKS
NASHVILLE      CLOUDY    68  64  87 W5        29.96S
PORTLAND       MOCLDY    66  64  94 VRB3      29.95R
CLARKSVILLE    CLOUDY    65  62  90 SW6       29.96R
SMYRNA         CLOUDY    66  64  93 CALM      29.97S
COOKEVILLE     CLOUDY    64  64 100 CALM      29.96R
GALLATIN       CLEAR     64  63  94 CALM      29.98S
CROSSVILLE     MOCLDY    62  60  93 W3        30.01R
$$

TNZ061-075-076-078-094-096-097-290900-
SOUTH MIDDLE TENNESSEE

CITY           SKY/WX    TMP DP  RH WIND       PRES   REMARKS
FAYETTEVILLE   CLOUDY    68  66  94 CALM      29.99R
TULLAHOMA      MOCLDY    64  63  94 SW5       30.01R
WINCHESTER     CLOUDY    66  64  94 W3          N/A
MCMINNVILLE      N/A     63  63 100 CALM      29.98S
COLUMBIA       FOG       66  66 100 CALM      29.96S VSB 1/2
SHELBYVILLE    CLOUDY    64  64 100 SW5       29.99R
$$

TNZ017-018-042-046-047-290900-
NORTHEAST TENNESSEE

CITY           SKY/WX    TMP DP  RH WIND       PRES   REMARKS
TRI CITIES     PTCLDY    62  61  96 CALM      29.95S
ELIZABETHTON   CLOUDY    63  63 100 CALM      29.95S
$$

TNZ012-013-036-069-073-074-290900-
CENTRAL EAST TENNESSEE

CITY           SKY/WX    TMP DP  RH WIND       PRES   REMARKS
KNOXVILLE      CLOUDY    68  64  87 SW5       29.94R
OAK RIDGE      CLOUDY    67  62  84 CALM      29.96R
DOWNTOWN KNOXV CLOUDY    66  66 100 CALM      29.94R
GATLINBURG     CLOUDY    64  63  94 CALM      29.94R
MORRISTOWN     CLOUDY    63  63 100 CALM      29.94S
JACKSBORO      CLOUDY    63  63 100 CALM      29.97S
$$

TNZ083-085-099-290900-
SOUTHEAST TENNESSEE

CITY           SKY/WX    TMP DP  RH WIND       PRES   REMARKS
CHATTANOOGA    CLOUDY    70  64  81 CALM      29.96R
$$

SKY/WX REPORTED AS FAIR MEANS FEW OR NO CLOUDS BELOW
12 THOUSAND FEET.





USA.gov is the U.S. government's official web portal to all federal, state and local government web resources and services.